Location: Arcusa
(42.3167°N, 0.0833°W)
Time: 09:59:24
(UTC+00:00)

RESURS DK-1 - Pass Details

Date: 25 January 2020
Orbit: 554 x 564 km, 69.9° (Epoch: 16 February)

Event Time Altitude Azimuth Distance (km) Brightness Sun altitude
Rises 05:17:31 0° 182° (S) 2,723 5.9 -22.7°
Reaches altitude 10° 05:19:51 10° 173° (S) 1,835 5.1 -22.3°
Maximum altitude 05:23:33 33° 108° (ESE) 943 4.1 -21.6°
Drops below altitude 10° 05:27:17 10° 44° (NE) 1,855 5.5 -20.9°
Sets 05:29:39 0° 35° (NE) 2,758 6.3 -20.5°
